This is the latest recevied weather packets stored in our database for station/object KB1RMA-13. If no packets are shown the sender has not sent any weather packets the latest 1 day(s).
| Time | Temp. | Humidity | Pressure | Rain* | Wind** | Luminosity | Snow |
|---|---|---|---|---|---|---|---|
| 1778009755 | 26.11° C | 46% | 1004.9 hPa | 0 mm | 7.15 m/s, 174° | 637 W/m² | - |
| 1778009452 | 26.67° C | 46% | 1005 hPa | 0 mm | 4.02 m/s, 171° | 658 W/m² | - |
| 1778009151 | 26.11° C | 47% | 1004.7 hPa | 0 mm | 6.71 m/s, 183° | 673 W/m² | - |
| 1778008848 | 25.56° C | 46% | 1004.8 hPa | 0 mm | 8.49 m/s, 186° | 693 W/m² | - |
| 1778008546 | 26.11° C | 46% | 1005.1 hPa | 0 mm | 5.81 m/s, 176° | 693 W/m² | - |
| 1778008244 | 26.11° C | 47% | 1005.2 hPa | 0 mm | 5.81 m/s, 173° | 702 W/m² | - |
| 1778007944 | 26.11° C | 48% | 1005.3 hPa | 0 mm | 6.71 m/s, 175° | 717 W/m² | - |
| 1778007640 | 26.11° C | 46% | 1005.2 hPa | 0 mm | 8.94 m/s, 175° | 750 W/m² | - |
| 1778007337 | 26.11° C | 48% | 1005 hPa | 0 mm | 7.15 m/s, 176° | 749 W/m² | - |
| 1778007033 | 25.56° C | 51% | 1005.2 hPa | 0 mm | 8.94 m/s, 165° | 776 W/m² | - |
| 1778006730 | 25.56° C | 49% | 1005.4 hPa | 0 mm | 6.26 m/s, 196° | 806 W/m² | - |
| 1778006427 | 25.56° C | 50% | 1005.8 hPa | 0 mm | 8.49 m/s, 175° | 835 W/m² | - |
| 1778006124 | 25° C | 50% | 1005.7 hPa | 0 mm | 10.73 m/s, 176° | 861 W/m² | - |
| 1778005821 | 25.56° C | 49% | 1005.6 hPa | 0 mm | 12.52 m/s, 166° | 668 W/m² | - |
| 1778005517 | 26.11° C | 48% | 1005.8 hPa | 0 mm | 4.92 m/s, 176° | 815 W/m² | - |
| 1778005214 | 26.67° C | 46% | 1006.1 hPa | 0 mm | 3.13 m/s, 198° | 864 W/m² | - |
| 1778004911 | 27.22° C | 43% | 1005.8 hPa | 0 mm | 4.92 m/s, 172° | 852 W/m² | - |
| 1778004608 | 27.22° C | 44% | 1006.1 hPa | 0 mm | 6.71 m/s, 185° | 839 W/m² | - |
| 1778004304 | 27.22° C | 44% | 1006 hPa | 0 mm | 5.81 m/s, 199° | 840 W/m² | - |
| 1778004002 | 27.22° C | 42% | 1005.9 hPa | 0 mm | 4.47 m/s, 194° | 806 W/m² | - |
| 1778003697 | 26.67° C | 47% | 1006.1 hPa | 0 mm | 4.47 m/s, 180° | 844 W/m² | - |
| 1778003394 | 27.78° C | 40% | 1006.3 hPa | 0 mm | 3.13 m/s, 202° | 779 W/m² | - |
| 1778003091 | 27.78° C | 41% | 1006.2 hPa | 0 mm | 4.02 m/s, 233° | 857 W/m² | - |
| 1778002787 | 27.22° C | 40% | 1006.3 hPa | 0 mm | 4.02 m/s, 214° | 878 W/m² | - |
| 1778002484 | 27.22° C | 40% | 1006.6 hPa | 0 mm | 10.28 m/s, 200° | 867 W/m² | - |
* Rain latest hour (hover to see other rain measurements)
** Current wind speed in m/s (hover to see current wind gust speed)